Regional Weather Roundup
Issued by NWS

Home | Current Version | Previous Version | Graphics & Text | Print | Product List | Glossary On
Versions: 1 2 3 4 5 6 7 8 9 10 11 12 13 14 15 16 17 18 19 20 21 22 23 24 25 26 27 28 29 30 31 32 33 34 35 36 37 38 39 40 41 42 43 44 45 46 47 48 49 50
000
ASUS45 KSLC 292110
RWRUT

UTAH REGIONAL WEATHER ROUNDUP
NATIONAL WEATHER SERVICE SALT LAKE CITY UT
300 PM MDT MON JUN 29 2015

UTZ001>011-023>025-292200-

NORTHERN UTAH

CITY           SKY/WX    TMP DP  RH WIND       PRES   REMARKS
BRIGHAM CITY   SUNNY     98  38  12 CALM      30.05F HX  93
HILL AFB       SUNNY     97  46  17 VRB2      30.10F HX  93
LOGAN          SUNNY     97  53  22 VRB3      30.06F HX  94
OGDEN          SUNNY     98  44  15 SE6       30.05F HX  94
PROVO AIRPORT  MOSUNNY   97  46  17 SW6       30.07F HX  93
SALT LAKE CITY MOSUNNY  100  48  17 W8        30.02F HX  96
VERNAL         MOSUNNY   94  41  16 VRB6      30.15F HX  90
WENDOVER       SUNNY    102  45  14 E14       30.03F HX  98
HEBER CITY     MOSUNNY   97  36  11 NW3       30.16F HX  92
WEST JORDAN    SUNNY     99  46  16 N7        30.07F HX  95

$$

UTZ012>022-026-027-292200-

SOUTHERN/CENTRAL UTAH

CITY           SKY/WX    TMP DP  RH WIND       PRES   REMARKS
BLANDING       MOSUNNY   91  46  20 CALM      30.25F
BRYCE CANYON   PTSUNNY   84  38  19 SE12      30.35F
CEDAR CITY     MOSUNNY   95  36  12 VRB3      30.16F HX  90
DELTA          SUNNY     99  37  11 W9        30.07F HX  94
HANKSVILLE     SUNNY    100  39  12 CALM      30.05F HX  95
MILFORD        SUNNY    101  40  12 S13       30.08F HX  96
MOAB/CYNLANDS  SUNNY     99  42  14 CALM      30.03F HX  94
PRICE          MOSUNNY   97  39  13 NE10G17   30.17F HX  92
ST GEORGE      PTCLDY   106  48  14 W12G21    29.95F HX 102
KANAB          SUNNY     99  45  15 S10       30.15F HX  94

$$

REGIONAL REPORTS     COLORADO/ARIZONA

CITY           SKY/WX    TMP DP  RH WIND       PRES   REMARKS
CRAIG, CO      SUNNY     93  39  15 VRB5      30.24F
GRAND JUNCTION MOSUNNY   94  42  16 VRB6      30.08F HX  90
RIFLE          SUNNY     96  43  16 NW12      30.14F HX  92
MONTROSE       SUNNY     93  43  17 W6G17     30.18F
CORTEZ         SUNNY     92  41  17 MISG      30.17F
PAGE, AZ       SUNNY    101  41  12 VRB6      30.04F HX  96
GRAND CANYON   MOSUNNY   87  46  24 VRB3      30.28F
KINGMAN        SUNNY    102  48  16 W10G22    30.02F HX  98
FLAGSTAFF      PTSUNNY   81  47  30 NW9G18    30.31F

$$

REGIONAL REPORTS    NEVADA/IDAHO/WYOMING

CITY           SKY/WX    TMP DP  RH WIND       PRES   REMARKS
LAS VEGAS, NV  MOSUNNY  107  45  12 S10       29.86F HX 102
ELY            MOSUNNY   93  33  12 S5        30.20F
ELKO           SUNNY     96  40  14 SW8       30.11F HX  92
POCATELLO, ID  MOSUNNY   99  54  22 NW9       30.05F HX  97
BURLEY         SUNNY     96  54  24 VRB5      30.02F HX  94
EVANSTON, WY   MOSUNNY   90  39  16 NE7       30.32F
ROCK SPRINGS   SUNNY     87  43  21 VRB3      30.31F
KEMMERER       MOSUNNY  N/A N/A N/A E7        30.36S

$$


USA.gov is the U.S. government's official web portal to all federal, state and local government web resources and services.